Weather History for VVCT - August, 2014

Change the Weather History Date:

Saturday, August 23, 2014

  Actual Average Record
Temperature  
Mean Temperature 84 °F -  
Max Temperature 93 °F - - ()
Min Temperature 75 °F - - ()
Cooling Degree Days 19    
Growing Degree Days 34 (Base 50)    
Moisture  
Dew Point 76 °F    
Average Humidity 76    
Maximum Humidity 100    
Minimum Humidity 55    
Precipitation  
Precipitation 0.00 in - - ()
Sea Level Pressure  
Sea Level Pressure 29.81 in    
Wind  
Wind Speed 3 mph ()    
Max Wind Speed 12 mph    
Max Gust Speed -    
Visibility 5.0 miles    
Events Rain , Thunderstorm    
T = Trace of Precipitation, MM = Missing Value Source: Averaged Metar Reports

Daily Weather History Graph

Daily Weather History Graph

Search for Another Location

Airport or City:

Trip Planner

Search our weather history database for the weather conditions in past years. The results will help you decide how hot, cold, wet, or windy it might be!

Date:

Astronomy

Aug. 23, 2014 Rise Set
Actual Time 5:48 AM ICT 6:11 PM ICT
Civil Twilight 5:26 AM ICT 6:32 PM ICT
Nautical Twilight 5:01 AM ICT 6:57 PM ICT
Astronomical Twilight 4:36 AM ICT 7:23 PM ICT
Moon 3:46 AM ICT (8/23) 4:29 PM ICT (8/23)
Length of Visible Light 13h 06m
Length of Day
12h 23m
Waning Crescent, 5% of the Moon is Illuminated
Aug 23
Waning Crescent
Aug 25
New
Sep 2
First Quarter
Sep 9
Full
Sep 16
Last Quarter

Hourly Weather History & Observations

Time (ICT) Temp. Heat Index Dew Point Humidity Pressure Visibility Wind Dir Wind Speed Gust Speed Precip Events Conditions
5:30 AM 78.8 °F - 77.0 °F 94% 29.80 in 3.1 mi Variable 2.3 mph - N/A   Mist
6:00 AM 77.0 °F - 77.0 °F 100% 29.80 in 1.9 mi Variable 1.2 mph - N/A   Mist
6:30 AM 78.8 °F - 78.8 °F 100% 29.83 in 1.9 mi Variable 2.3 mph - N/A   Mist
7:00 AM 80.6 °F 88.1 °F 78.8 °F 94% 29.83 in 3.1 mi Variable 1.2 mph - N/A   Mist
7:30 AM 82.4 °F 90.9 °F 77.0 °F 84% 29.83 in 3.7 mi Calm Calm - N/A   Unknown
8:00 AM 82.4 °F 90.9 °F 77.0 °F 84% 29.83 in - SSE 3.5 mph - N/A   Clear
8:30 AM 86.0 °F 99.3 °F 78.8 °F 79% 29.86 in 6.2 mi South 5.8 mph - N/A   Partly Cloudy
9:00 AM 87.8 °F 99.7 °F 77.0 °F 70% 29.86 in 6.2 mi Variable 1.2 mph - N/A   Partly Cloudy
9:30 AM 87.8 °F 97.6 °F 75.2 °F 66% 29.86 in 6.2 mi Variable 1.2 mph - N/A   Scattered Clouds
10:00 AM 89.6 °F 99.8 °F 75.2 °F 62% 29.86 in 6.2 mi Variable 3.5 mph - N/A   Scattered Clouds
10:30 AM 87.8 °F 97.6 °F 75.2 °F 66% 29.86 in 6.2 mi WSW 4.6 mph - N/A   Mostly Cloudy
11:00 AM 89.6 °F 96.2 °F 71.6 °F 55% 29.83 in 6.2 mi Variable 2.3 mph - N/A   Mostly Cloudy
11:30 AM 91.4 °F 102.5 °F 75.2 °F 59% 29.83 in 6.2 mi Variable 2.3 mph - N/A   Mostly Cloudy
12:00 PM 93.2 °F 105.0 °F 75.2 °F 56% 29.83 in 6.2 mi Variable 1.2 mph - N/A   Mostly Cloudy
12:30 PM 91.4 °F 105.1 °F 77.0 °F 63% 29.80 in 6.2 mi Variable 3.5 mph - N/A   Mostly Cloudy
1:00 PM 89.6 °F 102.2 °F 77.0 °F 66% 29.80 in 6.2 mi Variable 3.5 mph - N/A   Mostly Cloudy
1:30 PM 87.8 °F 99.7 °F 77.0 °F 70% 29.80 in 5.0 mi SSW 8.1 mph - N/A Rain Light Rain
2:00 PM 89.6 °F 102.2 °F 77.0 °F 66% 29.77 in 6.2 mi SW 11.5 mph - N/A   Partly Cloudy
2:30 PM 91.4 °F 102.5 °F 75.2 °F 59% 29.74 in 6.2 mi WSW 5.8 mph - N/A   Partly Cloudy
3:00 PM 91.4 °F 102.5 °F 75.2 °F 59% 29.74 in 6.2 mi WSW 4.6 mph - N/A   Partly Cloudy
3:30 PM 91.4 °F 105.1 °F 77.0 °F 63% 29.74 in 6.2 mi SW 6.9 mph - N/A Thunderstorm Thunderstorm
4:30 PM 75.2 °F - 73.4 °F 94% 29.77 in 1.9 mi SSW 5.8 mph - N/A Rain Rain
5:00 PM 75.2 °F - 75.2 °F 100% 29.80 in 3.7 mi SW 9.2 mph - N/A Rain , Thunderstorm Light Thunderstorms and Rain
5:30 PM 77.0 °F - 77.0 °F 100% 29.77 in 5.0 mi Calm Calm - N/A Rain Light Rain
6:00 PM 75.2 °F - 75.2 °F 100% 29.77 in 5.0 mi Calm Calm - N/A Rain Light Rain